Terminal Aerodrome Forecast
Issued by NWS Huntsville, AL

Home | Current Version | Previous Version | Text Only | Print | Product List | Glossary On
Versions: 1 2 3 4 5 6 7 8 9 10 11 12 13 14 15 16 17 18 19 20 21 22 23 24 25 26 27 28 29 30 31 32 33 34 35 36 37 38 39 40 41
000
FTUS44 KHUN 030535
TAFMSL
TAF
KMSL 030535Z 0306/0406 02003KT P6SM SKC
      TEMPO 0308/0312 3SM BR BKN015
     FM031300 05004KT P6SM BKN025
     FM031600 03004KT P6SM SCT040
     FM040100 36003KT P6SM SCT100=

USA.gov is the U.S. government's official web portal to all federal, state and local government web resources and services.